This is the latest recevied weather packets stored in our database for station/object VK6HGR-1. If no packets are shown the sender has not sent any weather packets the latest 10 day(s).
| Time | Temp. | Humidity | Pressure | Rain* | Wind** | Luminosity | Snow |
|---|---|---|---|---|---|---|---|
| 1778133612 | 23.89° C | 40% | 1024.9 hPa | - | - | - | - |
| 1778132713 | 23.89° C | 41% | 1024.9 hPa | - | - | - | - |
| 1778131811 | 23.33° C | 43% | 1025.2 hPa | - | - | - | - |
| 1778130912 | 23.33° C | 42% | 1025.3 hPa | - | - | - | - |
| 1778130018 | 22.78° C | 43% | 1025.5 hPa | - | - | - | - |
| 1778129111 | 22.78° C | 44% | 1025.9 hPa | - | - | - | - |
| 1778128215 | 22.78° C | 44% | 1026.3 hPa | - | - | - | - |
| 1778127311 | 22.22° C | 45% | 1026.5 hPa | - | - | - | - |
| 1778126457 | 22.22° C | 46% | 1026.8 hPa | - | - | - | - |
| 1778126412 | 22.22° C | 46% | 1026.8 hPa | - | - | - | - |
| 1778125510 | 21.67° C | 46% | 1027.2 hPa | - | - | - | - |
| 1778124611 | 21.11° C | 47% | 1027.4 hPa | - | - | - | - |
| 1778123710 | 20.56° C | 48% | 1027.6 hPa | - | - | - | - |
| 1778122812 | 20.56° C | 49% | 1027.7 hPa | - | - | - | - |
| 1778121912 | 20° C | 51% | 1027.9 hPa | - | - | - | - |
| 1778121012 | 19.44° C | 51% | 1028.2 hPa | - | - | - | - |
| 1778120111 | 18.89° C | 54% | 1028.4 hPa | - | - | - | - |
| 1778119212 | 18.33° C | 55% | 1028.6 hPa | - | - | - | - |
| 1778118316 | 17.78° C | 56% | 1028.8 hPa | - | - | - | - |
| 1778117416 | 17.22° C | 58% | 1028.9 hPa | - | - | - | - |
| 1778116511 | 16.11° C | 60% | 1028.8 hPa | - | - | - | - |
| 1778115613 | 15.56° C | 62% | 1028.8 hPa | - | - | - | - |
| 1778114710 | 15° C | 63% | 1028.9 hPa | - | - | - | - |
| 1778113810 | 13.89° C | 64% | 1028.9 hPa | - | - | - | - |
| 1778112913 | 13.33° C | 65% | 1028.9 hPa | - | - | - | - |
* Rain since midnight (hover to see other rain measurements)
** Current wind speed in m/s (hover to see current wind gust speed)